Regional Weather Roundup
Issued by NWS

Home | Current Version | Previous Version | Graphics & Text | Print | Product List | Glossary On
Versions: 1 2 3 4 5 6 7 8 9 10 11 12 13 14 15 16 17 18 19 20 21 22 23 24 25 26 27 28 29 30 31 32 33 34 35 36 37 38 39 40 41 42 43 44 45 46 47 48 49 50
000
ASUS43 KLOT 210103
RWRIL

ILLINOIS REGIONAL WEATHER ROUNDUP
NATIONAL WEATHER SERVICE CHICAGO/ROMEOVILLE IL
700 PM CST SAT JAN 20 2018

NOTE: "FAIR" INDICATES FEW OR NO CLOUDS BELOW 12,000 FEET WITH NO
SIGNIFICANT WEATHER AND/OR OBSTRUCTIONS TO VISIBILITY.

* THESE STATIONS ARE NOT UNDER NWS QUALITY CONTROL. THEY ALSO MAY NOT
  REPORT WEATHER SUCH AS PRECIPITATION OR FOG.

ILZ001-002-007-009-015-016-024-210200-
NORTHWEST ILLINOIS

CITY           SKY/WX    TMP DP  RH WIND       PRES   REMARKS
MOLINE         CLOUDY    43  37  79 CALM      29.95R
STERLING*      MOCLDY    34  32  92 CALM      29.97S
SAVANNA*       CLOUDY    34  32  93 S5        29.95F FOG     WCI  30
$$

ILZ003-004-008-010-011-017-018-210200-
NORTH CENTRAL ILLINOIS

CITY           SKY/WX    TMP DP  RH WIND       PRES   REMARKS
ROCKFORD       MOCLDY    36  32  85 SW7       29.98R WCI  30
FREEPORT*      FAIR      34  33  94 S9        29.96F WCI  27
ROCHELLE*      CLOUDY    35  34  96 S6        29.98S FOG     WCI  30
DE KALB*       CLOUDY    37  36  94 S7        29.98S FOG     WCI  32
PERU*          CLOUDY    40  36  86 SE5       29.99S
$$

ILZ005-006-012>014-019>023-210200-
NORTHEAST ILLINOIS

CITY           SKY/WX    TMP DP  RH WIND       PRES   REMARKS
CHICAGO-OHARE  CLOUDY    42  36  79 S12       29.98R
CHICAGO-MIDWAY CLOUDY    43  37  79 S12       29.99R
AURORA         CLOUDY    39  36  89 SW5       29.99R
LANSING*       CLOUDY    39  38  94 SW6       30.01R WCI  35
JOLIET*        CLOUDY    42  38  87 S5        30.00R
WAUKEGAN       FAIR      32  28  85 CALM      29.97R
DUPAGE AIRPORT CLOUDY    38  37  97 S6        29.98R FOG     WCI  33
KANKAKEE*      CLOUDY   N/A N/A N/A SW3       30.03R
WHEELING       CLOUDY    41  37  86 SW6       29.99R
MORRIS*        CLOUDY    39  36  89 S6        29.99R WCI  35
NORTHERLY ISL    N/A     42  35  76 S14         N/A
$$

LMZ740>746-210200-
SOUTHERN LAKE MICHIGAN

STATION/POSITION SKY/WX   TEMP    WIND        PRES    VSBY  WAVE
                          AIR SEA DIR/SP/G                  HT/PER
                          (F)     (DEG/KT/KT) (MB)    (MI)  (FT/S)
HARRISON CRIB              43     200/ 13/ 13   N/A
BURNHAM HARBOR             42     180/ 11/ 13   N/A
CALUMET HARBOR             42     210/  7/ 10 1014.9R
BURNS HARBOR               41     180/  8/ 14 1016.6R
MICHIGAN CITY              41     170/ 10/ 13   N/A
$$

ILZ025>027-034>036-040-047-049-050-058-095>099-210200-
WEST-CENTRAL ILLINOIS

CITY           SKY/WX    TMP DP  RH WIND       PRES   REMARKS
QUINCY         CLOUDY    45  40  82 E5        29.95S
GALESBURG*     CLOUDY    42  39  89 E5        29.97R
MACOMB*        CLOUDY    42  39  89 S9        29.98S
JACKSONVILLE*  CLOUDY    44  37  77 SE8       29.98R
PITTSFIELD*    CLEAR     43  40  88 E3        29.97S
$$

ILZ028>032-037-038-041>044-048-051>054-059>061-210200-
CENTRAL ILLINOIS

CITY           SKY/WX    TMP DP  RH WIND       PRES   REMARKS
BLOOMINGTON    CLOUDY    39  37  92 S8        29.99S WCI  33
DECATUR        CLOUDY    42  37  82 S5        30.01R
PEORIA         CLOUDY    43  39  86 S6        29.98S
LACON*         CLOUDY    40  37  86 CALM      29.98S
LINCOLN*       CLOUDY    43  38  83 CALM      29.99F
SPRINGFIELD    CLOUDY    46  37  71 S7        29.99R
TAYLORVILLE    FAIR      41  37  86 S9        30.00S
$$

ILZ033-039-045-046-055>057-062-063-210200-
EAST-CENTRAL ILLINOIS

CITY           SKY/WX    TMP DP  RH WIND       PRES   REMARKS
CHAMPAIGN      CLOUDY    39  34  82 S12       30.01S WCI  32
DANVILLE*      CLOUDY    39  32  76 S10       30.01R WCI  32
RANTOUL*       CLOUDY    38  36  92 S5        30.01S WCI  35
MATTOON        MOCLDY    43  40  89 S10       30.01F
$$

ILZ079-100>102-210200-
SOUTHWEST ILLINOIS

CITY           SKY/WX    TMP DP  RH WIND       PRES   REMARKS
ALTON          CLEAR     41  39  93 E9        29.98F
BELLEVILLE     FAIR      42  36  80 S9        29.99R
CAHOKIA*       FAIR      45  37  73 SE12      29.98R
SPARTA*        FAIR      43  41  94 S9        30.03R
$$

ILZ064>066-069>071-074>076-080>082-084>086-088>090-092>094-210200-
SOUTH-CENTRAL ILLINOIS

CITY           SKY/WX    TMP DP  RH WIND       PRES   REMARKS
CARBONDALE     MOCLDY    44  40  85 S10       30.05R
CAIRO*         CLOUDY    42  37  80 SW3       30.09R
EFFINGHAM*     CLOUDY    39  39  99 SE6       30.06R WCI  35
MARION         CLOUDY    45  39  81 S13       30.07R
MT. VERNON     CLOUDY    43  40  89 S9        30.05S
CENTRALIA*     CLOUDY    44  43  95 S16       30.03R
SALEM*         CLOUDY    45  42  88 S14       30.03R
$$

ILZ067-068-072-073-078-083-087-091-210200-
SOUTHEAST ILLINOIS

CITY           SKY/WX    TMP DP  RH WIND       PRES   REMARKS
LAWRENCEVILLE  CLOUDY    39  31  72 S12       30.06S WCI  32
FLORA*         CLOUDY    43  41  92 S12       30.05R
FAIRFIELD*     CLOUDY    42  41  97 S5        30.05F
HARRISBURG*    CLOUDY    42  40  93 SE6       30.07S
ROBINSON*      CLOUDY    40  37  89 S5        30.07F
CARMI*         CLOUDY    38  37  95 CALM      30.07S
$$

ABBREVIATIONS USED IN REMARKS
   TC - TEMPERATURE IN CELSIUS
  WCI - WIND CHILL INDEX
   HX - HEAT INDEX
  VSB - VISIBILITY
$$





USA.gov is the U.S. government's official web portal to all federal, state and local government web resources and services.